EJU16DM LPMA-EHAM

Flight info

Callsign EJU16DM
Flight time 3h 40m
Altitude 36000
Route DEGUN DCT MARUM DCT DEMOS DCT LOTEE DCT AZFIC DCT ERIGA DCT GODIX DCT PODEM DCT BAZOS DCT BELDI DCT VEKIN DCT ADUTO N873 FERDI/N0392F240 Y18 DENUT
Aircraft A20N/M-SDE2E3FGHIRWXY/LB1

Departure

Time 2026-05-01 10:37
Airport Cristiano Ronaldo International Airport (LPMA)

Arrival

Time 2026-05-01 14:18
Airport Amsterdam Airport Schiphol (EHAM)
Time Latitude Longitude Altitude Speed Heading
2026-05-01 10:24 32.69463 -16.77515 174 ft 0 kts 137°
2026-05-01 10:28 32.69461 -16.77513 173 ft 0 kts 137°
2026-05-01 10:28 32.69472 -16.77524 176 ft 2 kts 137°
2026-05-01 10:29 32.69494 -16.77548 183 ft 2 kts 137°
2026-05-01 10:29 32.69505 -16.77560 186 ft 2 kts 137°
2026-05-01 10:30 32.69534 -16.77569 191 ft 1 kts 218°
2026-05-01 10:30 32.69543 -16.77557 191 ft 0 kts 226°
2026-05-01 10:31 32.69552 -16.77544 191 ft 1 kts 226°
2026-05-01 10:31 32.69561 -16.77531 191 ft 1 kts 226°
2026-05-01 10:32 32.69565 -16.77525 191 ft 0 kts 227°
2026-05-01 10:33 32.69519 -16.77572 189 ft 9 kts 222°
2026-05-01 10:34 32.69462 -16.77640 188 ft 13 kts 225°
2026-05-01 10:34 32.69389 -16.77731 185 ft 17 kts 226°
2026-05-01 10:34 32.69312 -16.77825 177 ft 11 kts 229°
2026-05-01 10:35 32.69284 -16.77989 182 ft 8 kts 267°
2026-05-01 10:35 32.69265 -16.78058 180 ft 11 kts 225°
2026-05-01 10:35 32.69185 -16.78146 171 ft 19 kts 220°
2026-05-01 10:35 32.69078 -16.78262 157 ft 18 kts 229°
2026-05-01 10:36 32.68895 -16.78428 137 ft 16 kts 246°
2026-05-01 10:36 32.68940 -16.78453 142 ft 8 kts 49°
2026-05-01 10:36 32.69014 -16.78359 151 ft 38 kts 46°
2026-05-01 10:37 32.69361 -16.77939 193 ft 101 kts 42°
2026-05-01 10:37 32.70845 -16.76216 596 ft 169 kts 49°
2026-05-01 10:37 32.71300 -16.74961 1178 ft 173 kts 88°
2026-05-01 10:38 32.71044 -16.73579 1832 ft 173 kts 108°
2026-05-01 10:38 32.70639 -16.72240 2358 ft 179 kts 110°
2026-05-01 10:38 32.70166 -16.70819 2770 ft 193 kts 114°
2026-05-01 10:38 32.69654 -16.69318 3229 ft 205 kts 112°
2026-05-01 10:39 32.69082 -16.67703 3654 ft 220 kts 115°
2026-05-01 10:39 32.68452 -16.65983 4047 ft 240 kts 113°
2026-05-01 10:39 32.67791 -16.64073 4545 ft 257 kts 114°
2026-05-01 10:39 32.67143 -16.62057 5114 ft 271 kts 112°
2026-05-01 10:40 32.66498 -16.59944 5864 ft 277 kts 112°
2026-05-01 10:40 32.65838 -16.57805 6726 ft 280 kts 111°
2026-05-01 10:40 32.65460 -16.55557 7480 ft 290 kts 88°
2026-05-01 10:40 32.66000 -16.53291 8210 ft 298 kts 59°
2026-05-01 10:41 32.67343 -16.51461 8958 ft 302 kts 41°
2026-05-01 10:41 32.68895 -16.49784 9696 ft 307 kts 40°
2026-05-01 10:41 32.72089 -16.46301 10949 ft 326 kts 41°
2026-05-01 10:42 32.73782 -16.44413 11358 ft 342 kts 41°
2026-05-01 10:42 32.75513 -16.42463 11764 ft 358 kts 41°
2026-05-01 10:42 32.77360 -16.40369 12140 ft 374 kts 41°
2026-05-01 10:42 32.79234 -16.38231 12588 ft 385 kts 41°
2026-05-01 10:43 32.81204 -16.35979 13249 ft 391 kts 41°
2026-05-01 10:43 32.83221 -16.33671 13909 ft 395 kts 42°
2026-05-01 10:43 32.85217 -16.31387 14546 ft 401 kts 42°
2026-05-01 10:43 32.87237 -16.29070 15166 ft 405 kts 42°
2026-05-01 10:44 32.89285 -16.26722 15758 ft 409 kts 41°
2026-05-01 10:44 32.91362 -16.24340 16370 ft 414 kts 41°
2026-05-01 10:44 32.93427 -16.21965 17078 ft 414 kts 41°
2026-05-01 10:44 32.95494 -16.19590 17713 ft 417 kts 41°
2026-05-01 10:45 32.97599 -16.17169 18232 ft 422 kts 41°
2026-05-01 10:45 32.99741 -16.14704 18807 ft 426 kts 41°
2026-05-01 10:45 33.01868 -16.12254 19368 ft 430 kts 41°
2026-05-01 10:45 33.04002 -16.09794 19884 ft 434 kts 41°
2026-05-01 10:46 33.06196 -16.07264 20432 ft 438 kts 41°
2026-05-01 10:46 33.08424 -16.04692 20896 ft 443 kts 41°
2026-05-01 10:46 33.10662 -16.02107 21419 ft 447 kts 41°
2026-05-01 10:46 33.12883 -15.99538 21929 ft 450 kts 41°
2026-05-01 10:47 33.15166 -15.96897 22428 ft 453 kts 41°
2026-05-01 10:47 33.17480 -15.94218 22916 ft 456 kts 41°
2026-05-01 10:47 33.19781 -15.91552 23377 ft 460 kts 41°
2026-05-01 10:47 33.22109 -15.88853 23830 ft 463 kts 41°
2026-05-01 10:48 33.24449 -15.86138 24292 ft 466 kts 41°
2026-05-01 10:48 33.26781 -15.83426 24739 ft 469 kts 41°
2026-05-01 10:48 33.29166 -15.80655 25145 ft 473 kts 41°
2026-05-01 10:48 33.31529 -15.77907 25583 ft 475 kts 41°
2026-05-01 10:49 33.33961 -15.75073 26008 ft 478 kts 40°
2026-05-01 10:49 33.36368 -15.72271 26385 ft 481 kts 40°
2026-05-01 10:49 33.38789 -15.69455 26759 ft 483 kts 40°
2026-05-01 10:49 33.41375 -15.66755 27144 ft 483 kts 34°
2026-05-01 10:50 33.44104 -15.64400 27508 ft 482 kts 28°
2026-05-01 10:50 33.46975 -15.62352 27995 ft 478 kts 24°
2026-05-01 10:50 33.49861 -15.60434 28574 ft 474 kts 23°
2026-05-01 10:50 33.52761 -15.58541 29076 ft 473 kts 23°
2026-05-01 10:51 33.55659 -15.56645 29546 ft 472 kts 22°
2026-05-01 10:51 33.58489 -15.54785 29991 ft 472 kts 23°
2026-05-01 10:51 33.61291 -15.52934 30430 ft 472 kts 23°
2026-05-01 10:51 33.63938 -15.51180 30822 ft 472 kts 23°
2026-05-01 10:52 33.66621 -15.49394 31235 ft 471 kts 23°
2026-05-01 10:52 33.69269 -15.47629 31627 ft 471 kts 23°
2026-05-01 10:52 33.71977 -15.45821 32020 ft 470 kts 23°
2026-05-01 10:52 33.74679 -15.44017 32385 ft 470 kts 23°
2026-05-01 10:53 33.77359 -15.42225 32745 ft 470 kts 23°
2026-05-01 10:53 33.80036 -15.40435 33089 ft 469 kts 23°
2026-05-01 10:53 33.82711 -15.38643 33427 ft 469 kts 23°
2026-05-01 10:53 33.85341 -15.36880 33730 ft 469 kts 23°
2026-05-01 10:54 33.87996 -15.35101 34030 ft 470 kts 22°
2026-05-01 10:54 33.90604 -15.33350 34300 ft 471 kts 23°
2026-05-01 10:54 33.93229 -15.31587 34549 ft 471 kts 23°
2026-05-01 10:54 33.95865 -15.29814 34791 ft 472 kts 23°
2026-05-01 10:55 33.98514 -15.28031 35047 ft 472 kts 23°
2026-05-01 10:55 34.01179 -15.26237 35284 ft 473 kts 22°
2026-05-01 10:55 34.03859 -15.24431 35526 ft 473 kts 22°
2026-05-01 10:55 34.06479 -15.22666 35750 ft 474 kts 22°
2026-05-01 10:56 34.09106 -15.20894 35949 ft 475 kts 22°
2026-05-01 10:56 34.11770 -15.19099 36138 ft 475 kts 23°
2026-05-01 10:56 34.14438 -15.17300 36150 ft 477 kts 23°
2026-05-01 10:57 34.19762 -15.13697 36140 ft 478 kts 23°
2026-05-01 10:57 34.25099 -15.10082 36139 ft 479 kts 23°
2026-05-01 10:58 34.30391 -15.06493 36129 ft 479 kts 22°
2026-05-01 10:58 34.35696 -15.02892 36129 ft 479 kts 22°
2026-05-01 10:59 34.41040 -14.99259 36128 ft 479 kts 23°
2026-05-01 10:59 34.46357 -14.95636 36129 ft 479 kts 23°
2026-05-01 11:00 34.51801 -14.91919 36131 ft 479 kts 22°
2026-05-01 11:00 34.57142 -14.88271 36128 ft 480 kts 23°
2026-05-01 11:01 34.62544 -14.84572 36128 ft 479 kts 22°
2026-05-01 11:01 34.68209 -14.80692 36127 ft 480 kts 23°
2026-05-01 11:02 34.73751 -14.76887 36131 ft 480 kts 22°
2026-05-01 11:02 34.79535 -14.72910 36131 ft 479 kts 22°
2026-05-01 11:03 34.85048 -14.69115 36135 ft 480 kts 23°
2026-05-01 11:03 34.90348 -14.65461 36132 ft 481 kts 23°
2026-05-01 11:04 34.95802 -14.61692 36139 ft 481 kts 23°
2026-05-01 11:04 35.01285 -14.57898 36137 ft 482 kts 22°
2026-05-01 11:05 35.06742 -14.54115 36133 ft 481 kts 23°
2026-05-01 11:05 35.12165 -14.50351 36136 ft 481 kts 23°
2026-05-01 11:06 35.17596 -14.46574 36136 ft 480 kts 22°
2026-05-01 11:06 35.23071 -14.42762 36135 ft 480 kts 22°
2026-05-01 11:07 35.31282 -14.37037 36136 ft 481 kts 22°
2026-05-01 11:07 35.36713 -14.33242 36132 ft 481 kts 23°
2026-05-01 11:08 35.42098 -14.29473 36138 ft 483 kts 24°
2026-05-01 11:09 35.50286 -14.23725 36140 ft 482 kts 24°
2026-05-01 11:09 35.55644 -14.19961 36134 ft 483 kts 24°
2026-05-01 11:10 35.63820 -14.14201 36135 ft 483 kts 23°
2026-05-01 11:10 35.69576 -14.10143 36134 ft 484 kts 24°
2026-05-01 11:11 35.75388 -14.06031 36129 ft 484 kts 24°
2026-05-01 11:11 35.81129 -14.01966 36129 ft 483 kts 23°
2026-05-01 11:12 35.86946 -13.97841 36127 ft 483 kts 23°
2026-05-01 11:12 35.92720 -13.93741 36130 ft 484 kts 23°
2026-05-01 11:13 35.98524 -13.89609 36127 ft 483 kts 23°
2026-05-01 11:13 36.04316 -13.85478 36130 ft 483 kts 23°
2026-05-01 11:14 36.10066 -13.81373 36131 ft 483 kts 23°
2026-05-01 11:14 36.15876 -13.77218 36130 ft 483 kts 23°
2026-05-01 11:15 36.21672 -13.73068 36130 ft 485 kts 23°
2026-05-01 11:15 36.27484 -13.68892 36128 ft 484 kts 23°
2026-05-01 11:16 36.33313 -13.64703 36126 ft 485 kts 23°
2026-05-01 11:16 36.39133 -13.60512 36127 ft 485 kts 23°
2026-05-01 11:17 36.44661 -13.56520 36123 ft 485 kts 24°
2026-05-01 11:17 36.50271 -13.52464 36126 ft 485 kts 24°
2026-05-01 11:18 36.55831 -13.48436 36128 ft 487 kts 23°
2026-05-01 11:18 36.61454 -13.44353 36127 ft 485 kts 24°
2026-05-01 11:19 36.67071 -13.40355 36125 ft 485 kts 22°
2026-05-01 11:19 36.72762 -13.36359 36125 ft 486 kts 22°
2026-05-01 11:20 36.78536 -13.32288 36122 ft 486 kts 23°
2026-05-01 11:20 36.84331 -13.28188 36126 ft 488 kts 23°
2026-05-01 11:21 36.90159 -13.24051 36126 ft 487 kts 23°
2026-05-01 11:21 36.96039 -13.19869 36125 ft 487 kts 24°
2026-05-01 11:22 37.01852 -13.15731 36122 ft 488 kts 24°
2026-05-01 11:22 37.07721 -13.11542 36124 ft 487 kts 24°
2026-05-01 11:23 37.13555 -13.07371 36123 ft 487 kts 24°
2026-05-01 11:23 37.19332 -13.03232 36124 ft 487 kts 23°
2026-05-01 11:24 37.24852 -12.99274 36124 ft 488 kts 24°
2026-05-01 11:25 37.33358 -12.93157 36125 ft 488 kts 24°
2026-05-01 11:25 37.41768 -12.87095 36125 ft 488 kts 24°
2026-05-01 11:26 37.50275 -12.80950 36128 ft 489 kts 24°
2026-05-01 11:27 37.55763 -12.76975 36128 ft 490 kts 24°
2026-05-01 11:27 37.61328 -12.72937 36129 ft 490 kts 23°
2026-05-01 11:28 37.67092 -12.68747 36133 ft 489 kts 24°
2026-05-01 11:28 37.72943 -12.64488 36131 ft 489 kts 23°
2026-05-01 11:29 37.81712 -12.58089 36133 ft 489 kts 24°
2026-05-01 11:30 37.90132 -12.51927 36136 ft 491 kts 23°
2026-05-01 11:30 37.95562 -12.47943 36136 ft 490 kts 24°
2026-05-01 11:31 38.00874 -12.44040 36138 ft 489 kts 23°
2026-05-01 11:31 38.06225 -12.40103 36139 ft 490 kts 23°
2026-05-01 11:32 38.11569 -12.36163 36136 ft 490 kts 23°
2026-05-01 11:32 38.16966 -12.32178 36136 ft 490 kts 24°
2026-05-01 11:33 38.22383 -12.28175 36140 ft 490 kts 24°
2026-05-01 11:33 38.27875 -12.24104 36143 ft 491 kts 24°
2026-05-01 11:33 38.30557 -12.22114 35936 ft 490 kts 24°
2026-05-01 11:34 38.33250 -12.20114 36055 ft 492 kts 24°
2026-05-01 11:34 38.38678 -12.16082 36131 ft 494 kts 24°
2026-05-01 11:35 38.44105 -12.12036 36141 ft 494 kts 24°
2026-05-01 11:35 38.49534 -12.07985 36143 ft 494 kts 24°
2026-05-01 11:36 38.54996 -12.03902 36145 ft 494 kts 24°
2026-05-01 11:36 38.60458 -11.99811 36145 ft 493 kts 24°
2026-05-01 11:37 38.65929 -11.95707 36143 ft 493 kts 24°
2026-05-01 11:37 38.71408 -11.91591 36137 ft 494 kts 24°
2026-05-01 11:38 38.76867 -11.87482 36130 ft 494 kts 24°
2026-05-01 11:38 38.82301 -11.83382 36133 ft 494 kts 24°
2026-05-01 11:39 38.87856 -11.79188 36131 ft 494 kts 24°
2026-05-01 11:39 38.93399 -11.74988 36131 ft 494 kts 24°
2026-05-01 11:40 38.99044 -11.70709 36135 ft 494 kts 24°
2026-05-01 11:40 39.04682 -11.66426 36135 ft 494 kts 24°
2026-05-01 11:41 39.10223 -11.62207 36135 ft 494 kts 24°
2026-05-01 11:41 39.15803 -11.57954 36138 ft 495 kts 24°
2026-05-01 11:42 39.21458 -11.53632 36135 ft 494 kts 24°
2026-05-01 11:42 39.27132 -11.49288 36141 ft 494 kts 24°
2026-05-01 11:43 39.32728 -11.44995 36144 ft 494 kts 24°
2026-05-01 11:43 39.38120 -11.40855 36145 ft 494 kts 25°
2026-05-01 11:44 39.46248 -11.34595 36147 ft 493 kts 25°
2026-05-01 11:44 39.51696 -11.30392 36150 ft 494 kts 25°
2026-05-01 11:45 39.57155 -11.26170 36146 ft 494 kts 25°
2026-05-01 11:45 39.62580 -11.21966 36151 ft 495 kts 25°
2026-05-01 11:46 39.68134 -11.17654 36148 ft 494 kts 25°
2026-05-01 11:46 39.73775 -11.13268 36154 ft 494 kts 25°
2026-05-01 11:47 39.79398 -11.08888 36159 ft 494 kts 25°
2026-05-01 11:47 39.84882 -11.04607 36156 ft 493 kts 25°
2026-05-01 11:48 39.90331 -11.00345 36157 ft 493 kts 25°
2026-05-01 11:48 39.95875 -10.96003 36150 ft 493 kts 26°
2026-05-01 11:49 40.01377 -10.91685 36146 ft 493 kts 26°
2026-05-01 11:49 40.06912 -10.87327 36146 ft 493 kts 26°
2026-05-01 11:50 40.12349 -10.83047 36147 ft 492 kts 26°
2026-05-01 11:50 40.17731 -10.78796 36141 ft 492 kts 26°
2026-05-01 11:51 40.23068 -10.74576 36137 ft 492 kts 26°
2026-05-01 11:51 40.28504 -10.70267 36143 ft 491 kts 26°
2026-05-01 11:52 40.33825 -10.66042 36141 ft 490 kts 26°
2026-05-01 11:52 40.39304 -10.61687 36138 ft 491 kts 26°
2026-05-01 11:53 40.44766 -10.57325 36139 ft 490 kts 27°
2026-05-01 11:53 40.50266 -10.52928 36140 ft 489 kts 27°
2026-05-01 11:54 40.55790 -10.48506 36144 ft 488 kts 27°
2026-05-01 11:54 40.61329 -10.44069 36141 ft 488 kts 27°
2026-05-01 11:55 40.66879 -10.39610 36139 ft 487 kts 27°
2026-05-01 11:55 40.72440 -10.35134 36139 ft 488 kts 27°
2026-05-01 11:56 40.77947 -10.30691 36148 ft 486 kts 28°
2026-05-01 11:56 40.83477 -10.26222 36154 ft 487 kts 28°
2026-05-01 11:57 40.88907 -10.21828 36145 ft 486 kts 28°
2026-05-01 11:57 40.94389 -10.17379 36143 ft 485 kts 28°
2026-05-01 11:58 40.99843 -10.12946 36151 ft 485 kts 28°
2026-05-01 11:59 41.08114 -10.06209 36149 ft 484 kts 29°
2026-05-01 11:59 41.13509 -10.01792 36152 ft 483 kts 29°
2026-05-01 12:00 41.21626 -9.95147 36150 ft 482 kts 29°
2026-05-01 12:01 41.29604 -9.88596 36162 ft 482 kts 29°
2026-05-01 12:01 41.34781 -9.84333 36163 ft 482 kts 29°
2026-05-01 12:02 41.39912 -9.80100 36163 ft 482 kts 30°
2026-05-01 12:02 41.45068 -9.75838 36161 ft 482 kts 30°
2026-05-01 12:03 41.50265 -9.71532 36162 ft 482 kts 29°
2026-05-01 12:03 41.55413 -9.67264 36159 ft 482 kts 30°
2026-05-01 12:04 41.60606 -9.62950 36162 ft 482 kts 30°
2026-05-01 12:04 41.65915 -9.58528 36162 ft 483 kts 30°
2026-05-01 12:05 41.71317 -9.54021 36157 ft 483 kts 30°
2026-05-01 12:05 41.79566 -9.47119 36166 ft 481 kts 30°
2026-05-01 12:06 41.85086 -9.42489 36174 ft 481 kts 30°
2026-05-01 12:06 41.90566 -9.37814 36159 ft 481 kts 33°
2026-05-01 12:07 41.95378 -9.32871 36170 ft 482 kts 40°
2026-05-01 12:07 41.99840 -9.27488 36163 ft 481 kts 42°
2026-05-01 12:08 42.04350 -9.21944 36171 ft 481 kts 42°
2026-05-01 12:08 42.09042 -9.16193 36168 ft 481 kts 42°
2026-05-01 12:09 42.13847 -9.10317 36163 ft 480 kts 42°
2026-05-01 12:09 42.18317 -9.04847 36150 ft 480 kts 42°
2026-05-01 12:10 42.24951 -8.96722 36147 ft 480 kts 42°
2026-05-01 12:11 42.31674 -8.88459 36138 ft 479 kts 42°
2026-05-01 12:11 42.36222 -8.82857 36136 ft 479 kts 42°
2026-05-01 12:12 42.40748 -8.77267 36136 ft 479 kts 42°
2026-05-01 12:12 42.45259 -8.71685 36135 ft 478 kts 42°
2026-05-01 12:13 42.49766 -8.66096 36131 ft 478 kts 42°
2026-05-01 12:13 42.54425 -8.60309 36133 ft 478 kts 42°
2026-05-01 12:14 42.58963 -8.54656 36138 ft 478 kts 43°
2026-05-01 12:14 42.63423 -8.49091 36139 ft 478 kts 43°
2026-05-01 12:15 42.67866 -8.43532 36138 ft 477 kts 43°
2026-05-01 12:15 42.72386 -8.37868 36140 ft 477 kts 43°
2026-05-01 12:16 42.76922 -8.32173 36141 ft 477 kts 44°
2026-05-01 12:16 42.81499 -8.26415 36141 ft 476 kts 44°
2026-05-01 12:17 42.86104 -8.20609 36139 ft 476 kts 44°
2026-05-01 12:17 42.90881 -8.14574 36136 ft 476 kts 44°
2026-05-01 12:18 42.95576 -8.08622 36137 ft 475 kts 44°
2026-05-01 12:18 43.00129 -8.02843 36140 ft 475 kts 44°
2026-05-01 12:19 43.04605 -7.97147 36141 ft 474 kts 44°
2026-05-01 12:19 43.09220 -7.91261 36141 ft 474 kts 44°
2026-05-01 12:20 43.13851 -7.85343 36136 ft 474 kts 44°
2026-05-01 12:20 43.18366 -7.79566 36143 ft 473 kts 44°
2026-05-01 12:21 43.22813 -7.73864 36136 ft 473 kts 44°
2026-05-01 12:21 43.27193 -7.68236 36141 ft 473 kts 44°
2026-05-01 12:22 43.31617 -7.62539 36139 ft 473 kts 44°
2026-05-01 12:22 43.36132 -7.56714 36146 ft 473 kts 44°
2026-05-01 12:23 43.40664 -7.50850 36145 ft 473 kts 44°
2026-05-01 12:23 43.45241 -7.44914 36142 ft 473 kts 44°
2026-05-01 12:24 43.49910 -7.38850 36142 ft 473 kts 44°
2026-05-01 12:24 43.54539 -7.32827 36135 ft 473 kts 45°
2026-05-01 12:25 43.61482 -7.23760 36135 ft 473 kts 45°
2026-05-01 12:26 43.66121 -7.17684 36140 ft 472 kts 45°
2026-05-01 12:26 43.73032 -7.08609 36136 ft 473 kts 44°
2026-05-01 12:27 43.79965 -6.99475 36135 ft 472 kts 45°
2026-05-01 12:28 43.86897 -6.90311 36139 ft 472 kts 44°
2026-05-01 12:29 43.93799 -6.81157 36145 ft 472 kts 44°
2026-05-01 12:29 44.00704 -6.71966 36144 ft 471 kts 45°
2026-05-01 12:30 44.07612 -6.62748 36146 ft 471 kts 44°
2026-05-01 12:31 44.12233 -6.56562 36149 ft 471 kts 44°
2026-05-01 12:31 44.16781 -6.50457 36153 ft 471 kts 44°
2026-05-01 12:32 44.21344 -6.44317 36152 ft 471 kts 44°
2026-05-01 12:32 44.28243 -6.35013 36155 ft 471 kts 44°
2026-05-01 12:33 44.32785 -6.28870 36154 ft 470 kts 45°
2026-05-01 12:33 44.37364 -6.22658 36157 ft 470 kts 45°
2026-05-01 12:34 44.41900 -6.16485 36159 ft 470 kts 45°
2026-05-01 12:34 44.46461 -6.10270 36157 ft 470 kts 45°
2026-05-01 12:35 44.50994 -6.04083 36157 ft 470 kts 45°
2026-05-01 12:35 44.55526 -5.97881 36155 ft 470 kts 45°
2026-05-01 12:36 44.60068 -5.91652 36162 ft 469 kts 45°
2026-05-01 12:36 44.64595 -5.85427 36169 ft 469 kts 45°
2026-05-01 12:37 44.69155 -5.79171 36166 ft 468 kts 45°
2026-05-01 12:37 44.73447 -5.73302 36164 ft 468 kts 45°
2026-05-01 12:38 44.77698 -5.67478 36161 ft 467 kts 45°
2026-05-01 12:38 44.81940 -5.61647 36164 ft 467 kts 45°
2026-05-01 12:39 44.86118 -5.55896 36165 ft 466 kts 45°
2026-05-01 12:39 44.90301 -5.50122 36169 ft 467 kts 44°
2026-05-01 12:40 44.94495 -5.44322 36172 ft 467 kts 44°
2026-05-01 12:40 44.98764 -5.38405 36171 ft 467 kts 45°
2026-05-01 12:41 45.03287 -5.32115 36399 ft 469 kts 45°
2026-05-01 12:41 45.05390 -5.29186 36732 ft 467 kts 45°
2026-05-01 12:41 45.07491 -5.26257 37064 ft 465 kts 46°
2026-05-01 12:42 45.09575 -5.23351 37339 ft 464 kts 45°
2026-05-01 12:42 45.11855 -5.20166 37598 ft 464 kts 45°
2026-05-01 12:42 45.14163 -5.16935 37837 ft 464 kts 45°
2026-05-01 12:42 45.16463 -5.13713 38060 ft 463 kts 45°
2026-05-01 12:43 45.18737 -5.10525 38172 ft 464 kts 45°
2026-05-01 12:43 45.21019 -5.07327 38175 ft 464 kts 45°
2026-05-01 12:43 45.25298 -5.01328 38178 ft 463 kts 45°
2026-05-01 12:44 45.29430 -4.95516 38176 ft 462 kts 45°
2026-05-01 12:45 45.37717 -4.83813 38178 ft 462 kts 45°
2026-05-01 12:45 45.41866 -4.77930 38176 ft 462 kts 45°
2026-05-01 12:46 45.45994 -4.72056 38177 ft 462 kts 45°
2026-05-01 12:46 45.50159 -4.66124 38182 ft 462 kts 44°
2026-05-01 12:47 45.54317 -4.60190 38185 ft 461 kts 45°
2026-05-01 12:47 45.58424 -4.54313 38186 ft 461 kts 44°
2026-05-01 12:48 45.62549 -4.48399 38189 ft 461 kts 44°
2026-05-01 12:48 45.66658 -4.42496 38194 ft 461 kts 44°
2026-05-01 12:49 45.70777 -4.36567 38196 ft 461 kts 44°
2026-05-01 12:49 45.74852 -4.30690 38199 ft 461 kts 45°
2026-05-01 12:50 45.78909 -4.24823 38200 ft 460 kts 45°
2026-05-01 12:50 45.83009 -4.18876 38203 ft 460 kts 45°
2026-05-01 12:51 45.87081 -4.12959 38199 ft 460 kts 45°
2026-05-01 12:52 45.93195 -4.04042 38191 ft 459 kts 45°
2026-05-01 12:52 45.99289 -3.95128 38191 ft 458 kts 45°
2026-05-01 12:53 46.05334 -3.86263 38185 ft 458 kts 45°
2026-05-01 12:54 46.09375 -3.80323 38190 ft 457 kts 45°
2026-05-01 12:54 46.15449 -3.71372 38188 ft 456 kts 45°
2026-05-01 12:55 46.21488 -3.62436 38191 ft 456 kts 45°
2026-05-01 12:56 46.25459 -3.56542 38195 ft 456 kts 45°
2026-05-01 12:56 46.29472 -3.50574 38191 ft 456 kts 45°
2026-05-01 12:57 46.33459 -3.44632 38193 ft 456 kts 45°
2026-05-01 12:57 46.39460 -3.35662 38200 ft 455 kts 45°
2026-05-01 12:58 46.43436 -3.29701 38204 ft 455 kts 45°
2026-05-01 12:59 46.49325 -3.20845 38208 ft 455 kts 45°
2026-05-01 12:59 46.55051 -3.11964 38212 ft 454 kts 50°
2026-05-01 13:00 46.59868 -3.02157 38210 ft 453 kts 59°
2026-05-01 13:01 46.64020 -2.91752 38211 ft 453 kts 60°
2026-05-01 13:02 46.68201 -2.81224 38200 ft 453 kts 60°
2026-05-01 13:07 47.01891 -2.12651 38206 ft 452 kts 45°
2026-05-01 13:07 47.03863 -2.09717 38205 ft 452 kts 45°
2026-05-01 13:08 47.07767 -2.03891 38193 ft 452 kts 45°
2026-05-01 13:08 47.11706 -1.97995 38193 ft 452 kts 45°
2026-05-01 13:09 47.15755 -1.91916 38192 ft 451 kts 45°
2026-05-01 13:09 47.19816 -1.85806 38182 ft 451 kts 45°
2026-05-01 13:10 47.23916 -1.79622 38189 ft 451 kts 45°
2026-05-01 13:10 47.28084 -1.73320 38192 ft 451 kts 45°
2026-05-01 13:11 47.32325 -1.66892 38180 ft 451 kts 45°
2026-05-01 13:11 47.36612 -1.60379 38187 ft 451 kts 45°
2026-05-01 13:12 47.40896 -1.53852 38188 ft 450 kts 45°
2026-05-01 13:12 47.45195 -1.47287 38188 ft 450 kts 45°
2026-05-01 13:13 47.49523 -1.40661 38177 ft 449 kts 45°
2026-05-01 13:13 47.53794 -1.34107 38178 ft 449 kts 46°
2026-05-01 13:14 47.58080 -1.27514 38176 ft 450 kts 46°
2026-05-01 13:14 47.62339 -1.20945 38177 ft 450 kts 46°
2026-05-01 13:15 47.66590 -1.14372 38173 ft 449 kts 46°
2026-05-01 13:15 47.70833 -1.07794 38171 ft 448 kts 46°
2026-05-01 13:16 47.75090 -1.01177 38171 ft 448 kts 46°
2026-05-01 13:16 47.79322 -0.94583 38162 ft 447 kts 46°
2026-05-01 13:17 47.87760 -0.81384 38173 ft 448 kts 45°
2026-05-01 13:18 47.94093 -0.71437 38188 ft 448 kts 46°
2026-05-01 13:18 47.98309 -0.64792 38186 ft 448 kts 46°
2026-05-01 13:19 48.02501 -0.58167 38183 ft 447 kts 46°
2026-05-01 13:20 48.08777 -0.48219 38185 ft 447 kts 46°
2026-05-01 13:20 48.12941 -0.41599 38188 ft 447 kts 46°
2026-05-01 13:21 48.19191 -0.31629 38191 ft 448 kts 46°
2026-05-01 13:21 48.23333 -0.24999 38190 ft 448 kts 46°
2026-05-01 13:22 48.27481 -0.18341 38172 ft 448 kts 46°
2026-05-01 13:22 48.31599 -0.11721 38171 ft 448 kts 47°
2026-05-01 13:23 48.35780 -0.04974 38184 ft 448 kts 47°
2026-05-01 13:23 48.39830 0.01865 38182 ft 448 kts 49°
2026-05-01 13:24 48.43826 0.08826 38190 ft 448 kts 49°
2026-05-01 13:25 48.49744 0.19129 38190 ft 448 kts 49°
2026-05-01 13:25 48.53617 0.25871 38185 ft 448 kts 49°
2026-05-01 13:26 48.57484 0.32621 38190 ft 448 kts 49°
2026-05-01 13:26 48.61369 0.39414 38191 ft 447 kts 49°
2026-05-01 13:27 48.65190 0.46115 38190 ft 447 kts 50°
2026-05-01 13:27 48.70961 0.56268 38185 ft 446 kts 50°
2026-05-01 13:28 48.76793 0.66565 38204 ft 447 kts 50°
2026-05-01 13:29 48.84655 0.80517 38198 ft 445 kts 51°
2026-05-01 13:31 48.96630 1.01903 38201 ft 445 kts 51°
2026-05-01 13:32 49.06567 1.19784 38211 ft 443 kts 51°
2026-05-01 13:33 49.16472 1.37718 38200 ft 443 kts 52°
2026-05-01 13:34 49.24397 1.52161 38215 ft 443 kts 51°
2026-05-01 13:35 49.30862 1.62291 38193 ft 445 kts 45°
2026-05-01 13:36 49.37578 1.72056 38204 ft 444 kts 46°
2026-05-01 13:36 49.44232 1.81806 38193 ft 444 kts 46°
2026-05-01 13:37 49.48706 1.88394 38214 ft 444 kts 46°
2026-05-01 13:37 49.53127 1.94922 38200 ft 443 kts 46°
2026-05-01 13:38 49.59784 2.04781 38195 ft 444 kts 46°
2026-05-01 13:39 49.64234 2.11397 38185 ft 444 kts 46°
2026-05-01 13:39 49.68635 2.17958 38189 ft 444 kts 46°
2026-05-01 13:40 49.73051 2.24559 38201 ft 443 kts 46°
2026-05-01 13:40 49.77482 2.31196 38201 ft 443 kts 46°
2026-05-01 13:41 49.81856 2.37771 38203 ft 443 kts 46°
2026-05-01 13:41 49.86254 2.44403 38209 ft 443 kts 46°
2026-05-01 13:42 49.90664 2.51063 38198 ft 442 kts 46°
2026-05-01 13:42 49.95031 2.57681 38225 ft 442 kts 46°
2026-05-01 13:43 49.99421 2.64348 38225 ft 442 kts 46°
2026-05-01 13:43 50.01602 2.67667 37945 ft 442 kts 47°
2026-05-01 13:43 50.03799 2.71016 37640 ft 442 kts 47°
2026-05-01 13:43 50.05992 2.74364 37335 ft 442 kts 47°
2026-05-01 13:44 50.08167 2.77692 37210 ft 442 kts 47°
2026-05-01 13:44 50.12561 2.84427 37210 ft 443 kts 47°
2026-05-01 13:45 50.16925 2.91132 37218 ft 443 kts 47°
2026-05-01 13:45 50.21310 2.97891 37221 ft 443 kts 47°
2026-05-01 13:46 50.25689 3.04655 37217 ft 442 kts 47°
2026-05-01 13:46 50.30084 3.11463 37228 ft 443 kts 47°
2026-05-01 13:47 50.34422 3.18204 37226 ft 443 kts 46°
2026-05-01 13:47 50.39046 3.24652 37218 ft 445 kts 40°
2026-05-01 13:48 50.44141 3.30220 37218 ft 447 kts 33°
2026-05-01 13:48 50.49593 3.34818 37215 ft 447 kts 27°
2026-05-01 13:49 50.55202 3.38820 36821 ft 439 kts 25°
2026-05-01 13:49 50.57993 3.40714 36546 ft 437 kts 24°
2026-05-01 13:49 50.60807 3.42629 36308 ft 437 kts 25°
2026-05-01 13:49 50.63586 3.44531 36070 ft 438 kts 25°
2026-05-01 13:50 50.66357 3.46436 35825 ft 439 kts 25°
2026-05-01 13:50 50.69122 3.48345 35490 ft 439 kts 25°
2026-05-01 13:50 50.71883 3.50254 35036 ft 440 kts 25°
2026-05-01 13:50 50.74688 3.52198 34424 ft 442 kts 25°
2026-05-01 13:51 50.77418 3.54096 33764 ft 443 kts 25°
2026-05-01 13:51 50.80209 3.56035 33080 ft 445 kts 25°
2026-05-01 13:51 50.83047 3.58011 32374 ft 446 kts 25°
2026-05-01 13:51 50.85875 3.59983 31667 ft 447 kts 25°
2026-05-01 13:52 50.88727 3.61756 30948 ft 450 kts 19°
2026-05-01 13:52 50.91717 3.63096 30211 ft 452 kts 13°
2026-05-01 13:52 50.94797 3.63944 29453 ft 454 kts
2026-05-01 13:52 50.97960 3.64325 28687 ft 455 kts
2026-05-01 13:53 51.01096 3.64510 27913 ft 457 kts
2026-05-01 13:53 51.07365 3.64811 26822 ft 448 kts
2026-05-01 13:53 51.10435 3.64980 26315 ft 444 kts
2026-05-01 13:54 51.13467 3.65161 25804 ft 441 kts
2026-05-01 13:54 51.16433 3.65346 25299 ft 437 kts
2026-05-01 13:54 51.19415 3.65537 24783 ft 433 kts
2026-05-01 13:54 51.22304 3.65722 24285 ft 430 kts
2026-05-01 13:55 51.25214 3.65779 23954 ft 425 kts
2026-05-01 13:55 51.28140 3.65719 23747 ft 432 kts
2026-05-01 13:55 51.31093 3.65625 23169 ft 430 kts
2026-05-01 13:55 51.34071 3.65523 22642 ft 427 kts
2026-05-01 13:56 51.36938 3.65425 22130 ft 424 kts
2026-05-01 13:56 51.39849 3.65331 21604 ft 421 kts
2026-05-01 13:56 51.42754 3.65238 21077 ft 417 kts
2026-05-01 13:56 51.45576 3.65150 20591 ft 414 kts
2026-05-01 13:57 51.48378 3.65064 20098 ft 411 kts
2026-05-01 13:57 51.50160 3.65010 19779 ft 410 kts
2026-05-01 13:57 51.53732 3.64901 19136 ft 407 kts
2026-05-01 13:57 51.56433 3.64817 18620 ft 405 kts
2026-05-01 13:58 51.59070 3.64735 18146 ft 402 kts
2026-05-01 13:58 51.61689 3.64653 17686 ft 400 kts
2026-05-01 13:58 51.64284 3.64573 17203 ft 399 kts
2026-05-01 13:58 51.66812 3.64496 16714 ft 397 kts
2026-05-01 13:59 51.69344 3.64504 16222 ft 395 kts
2026-05-01 13:59 51.71726 3.65529 15752 ft 387 kts 30°
2026-05-01 13:59 51.73631 3.67837 15284 ft 378 kts 52°
2026-05-01 13:59 51.74942 3.70896 14839 ft 370 kts 63°
2026-05-01 14:00 51.76132 3.74152 14402 ft 368 kts 63°
2026-05-01 14:00 51.77346 3.77445 13958 ft 366 kts 63°
2026-05-01 14:00 51.78655 3.80921 13461 ft 364 kts 62°
2026-05-01 14:00 51.79953 3.84309 12972 ft 362 kts 62°
2026-05-01 14:01 51.81182 3.87481 12545 ft 360 kts 62°
2026-05-01 14:01 51.82439 3.90708 12066 ft 359 kts 61°
2026-05-01 14:01 51.83766 3.94103 11548 ft 357 kts 61°
2026-05-01 14:01 51.85046 3.97374 11099 ft 354 kts 61°
2026-05-01 14:02 51.86337 4.00673 10782 ft 345 kts 61°
2026-05-01 14:02 51.87564 4.03815 10622 ft 332 kts 61°
2026-05-01 14:02 51.88701 4.06722 10516 ft 320 kts 61°
2026-05-01 14:02 51.89779 4.09481 10368 ft 309 kts 60°
2026-05-01 14:03 51.91046 4.11939 10183 ft 304 kts 38°
2026-05-01 14:03 51.92871 4.13359 10190 ft 304 kts 21°
2026-05-01 14:03 51.94865 4.14526 9979 ft 306 kts 22°
2026-05-01 14:03 51.96824 4.15711 9751 ft 303 kts 22°
2026-05-01 14:04 51.98780 4.16902 9515 ft 302 kts 22°
2026-05-01 14:04 52.00722 4.18081 9271 ft 301 kts 22°
2026-05-01 14:04 52.02672 4.19268 9041 ft 300 kts 22°
2026-05-01 14:04 52.03961 4.20053 8880 ft 300 kts 22°
2026-05-01 14:05 52.06561 4.21642 8532 ft 298 kts 22°
2026-05-01 14:05 52.08470 4.22814 8281 ft 297 kts 22°
2026-05-01 14:05 52.10377 4.23988 8071 ft 296 kts 22°
2026-05-01 14:05 52.12286 4.25172 7832 ft 295 kts 23°
2026-05-01 14:06 52.14098 4.26592 7565 ft 293 kts 30°
2026-05-01 14:06 52.15872 4.28233 7316 ft 292 kts 32°
2026-05-01 14:06 52.17596 4.29881 7068 ft 291 kts 32°
2026-05-01 14:06 52.19281 4.31508 6854 ft 290 kts 32°
2026-05-01 14:07 52.20977 4.33151 6586 ft 289 kts 32°
2026-05-01 14:07 52.22688 4.34805 6313 ft 288 kts 32°
2026-05-01 14:07 52.24349 4.36408 6075 ft 286 kts 32°
2026-05-01 14:08 52.27731 4.39660 5778 ft 285 kts 32°
2026-05-01 14:08 52.29408 4.41265 5591 ft 284 kts 32°
2026-05-01 14:08 52.31055 4.42839 5402 ft 284 kts 32°
2026-05-01 14:08 52.32744 4.44448 5214 ft 283 kts 32°
2026-05-01 14:09 52.34404 4.46027 5057 ft 282 kts 32°
2026-05-01 14:09 52.36053 4.47591 4883 ft 281 kts 32°
2026-05-01 14:09 52.37748 4.49195 4721 ft 281 kts 32°
2026-05-01 14:09 52.39400 4.50756 4554 ft 280 kts 32°
2026-05-01 14:10 52.41037 4.52294 4383 ft 279 kts 32°
2026-05-01 14:10 52.42702 4.53855 4199 ft 278 kts 32°
2026-05-01 14:10 52.44347 4.55392 4007 ft 277 kts 32°
2026-05-01 14:10 52.46017 4.56946 3834 ft 276 kts 32°
2026-05-01 14:11 52.47678 4.58485 3704 ft 275 kts 32°
2026-05-01 14:11 52.50976 4.61539 3367 ft 273 kts 32°
2026-05-01 14:11 52.52614 4.63105 3183 ft 271 kts 38°
2026-05-01 14:12 52.53836 4.65267 3011 ft 261 kts 66°
2026-05-01 14:12 52.54311 4.68057 2854 ft 254 kts 88°
2026-05-01 14:12 52.54414 4.70892 2673 ft 251 kts 92°
2026-05-01 14:12 52.54252 4.73664 2489 ft 246 kts 112°
2026-05-01 14:13 52.53380 4.75853 2319 ft 234 kts 141°
2026-05-01 14:13 52.52458 4.76748 2191 ft 228 kts 161°
2026-05-01 14:13 52.50424 4.76582 1980 ft 222 kts 202°
2026-05-01 14:13 52.49218 4.75125 1977 ft 211 kts 218°
2026-05-01 14:14 52.48164 4.73649 1969 ft 196 kts 214°
2026-05-01 14:14 52.47108 4.72470 2016 ft 170 kts 197°
2026-05-01 14:14 52.46090 4.72081 1975 ft 151 kts 182°
2026-05-01 14:14 52.45135 4.71958 1749 ft 150 kts 179°
2026-05-01 14:15 52.44170 4.71887 1548 ft 150 kts 179°
2026-05-01 14:15 52.43204 4.71815 1375 ft 150 kts 179°
2026-05-01 14:15 52.42236 4.71734 1194 ft 147 kts 178°
2026-05-01 14:15 52.41329 4.71652 1004 ft 136 kts 180°
2026-05-01 14:16 52.40459 4.71572 846 ft 133 kts 179°
2026-05-01 14:16 52.39557 4.71492 684 ft 134 kts 179°
2026-05-01 14:16 52.38655 4.71410 523 ft 133 kts 180°
2026-05-01 14:16 52.37751 4.71315 338 ft 134 kts 180°
2026-05-01 14:17 52.36846 4.71203 152 ft 133 kts 175°
2026-05-01 14:17 52.35891 4.71149 51 ft 140 kts 175°
2026-05-01 14:17 52.34948 4.71095 -6 ft 127 kts 184°
2026-05-01 14:17 52.34242 4.71017 -7 ft 78 kts 185°
2026-05-01 14:18 52.33853 4.71023 -7 ft 37 kts 160°
2026-05-01 14:18 52.33647 4.71187 -7 ft 31 kts 157°
2026-05-01 14:18 52.33447 4.71227 -7 ft 27 kts 177°
2026-05-01 14:18 52.33323 4.71220 -7 ft 26 kts 180°
2026-05-01 14:19 52.33146 4.71399 -7 ft 22 kts 136°
2026-05-01 14:19 52.33044 4.71588 -7 ft 21 kts 131°
2026-05-01 14:19 52.32942 4.71775 -7 ft 22 kts 130°
2026-05-01 14:19 52.32848 4.71980 -4 ft 22 kts 104°
2026-05-01 14:20 52.32822 4.72241 -4 ft 24 kts 120°
2026-05-01 14:20 52.32584 4.72662 -5 ft 26 kts 140°
2026-05-01 14:20 52.32437 4.72864 -7 ft 28 kts 136°
2026-05-01 14:21 52.32288 4.73073 -7 ft 28 kts 140°
2026-05-01 14:21 52.32178 4.73225 -6 ft 10 kts 133°
2026-05-01 14:21 52.32159 4.73254 -6 ft 0 kts 140°
2026-05-01 14:22 52.32121 4.73313 -5 ft 11 kts 135°
2026-05-01 14:22 52.32067 4.73424 -4 ft 14 kts 108°
2026-05-01 14:22 52.32050 4.73607 -4 ft 18 kts 97°
2026-05-01 14:22 52.32045 4.73830 -5 ft 21 kts 94°
2026-05-01 14:23 52.32028 4.74097 -7 ft 25 kts 115°
2026-05-01 14:23 52.31881 4.74179 -7 ft 24 kts 184°
2026-05-01 14:23 52.31710 4.74171 -7 ft 24 kts 184°
2026-05-01 14:23 52.31544 4.74152 -4 ft 23 kts 182°
2026-05-01 14:24 52.31401 4.74172 -4 ft 20 kts 120°
2026-05-01 14:24 52.31395 4.74406 -5 ft 21 kts 87°
2026-05-01 14:24 52.31393 4.74650 -5 ft 22 kts 97°
2026-05-01 14:24 52.31411 4.74894 -3 ft 20 kts 87°
2026-05-01 14:25 52.31417 4.75129 -1 ft 20 kts 86°
2026-05-01 14:25 52.31425 4.75356 0 ft 18 kts 96°
2026-05-01 14:25 52.31337 4.75447 1 ft 18 kts 177°
2026-05-01 14:25 52.31221 4.75458 1 ft 18 kts 175°
2026-05-01 14:26 52.31112 4.75458 1 ft 17 kts 199°
2026-05-01 14:26 52.30993 4.75270 1 ft 6 kts 153°
2026-05-01 14:26 52.30967 4.75296 2 ft 3 kts 147°
2026-05-01 14:27 52.30965 4.75298 2 ft 0 kts 147°